Regional Weather Roundup
Issued by NWS Green Bay, WI

Home | Current Version | Previous Version | Text Only | Print | Product List | Glossary On
Versions: 1 2 3 4 5 6 7 8 9 10 11 12 13 14 15 16 17 18 19 20 21 22 23 24 25 26 27 28 29 30 31 32 33 34 35 36 37 38 39 40 41 42 43 44 45 46 47 48 49 50
633
ASUS43 KGRB 231200
RWRGRB

NORTH-CENTRAL AND NORTHEAST WISCONSIN REGIONAL WEATHER ROUNDUP
NATIONAL WEATHER SERVICE GREEN BAY WI
700 AM CDT SAT SEP 23 2017

WIZ005-009-010>012-018-019-231300-
NORTH CENTRAL WISCONSIN

CITY           SKY/WX    TMP DP  RH WIND       PRES   REMARKS
IRONWOOD       PTCLDY    75  67  76 SW10G17   29.95R
MANITOWISH WTR NOT AVBL
ARBOR VITAE    NOT AVBL
EAGLE RIVER    NOT AVBL
LAND O LAKES   NOT AVBL
RHINELANDER    CLEAR     70  65  84 SW9       30.04S
PHILLIPS       NOT AVBL
ANTIGO         NOT AVBL
TOMAHAWK       NOT AVBL
MERRILL        NOT AVBL
$$

WIZ013-073-231300-
NORTHEAST WISCONSIN

CITY           SKY/WX    TMP DP  RH WIND       PRES   REMARKS
IRON MOUNTAIN  PTCLDY    71  63  75 VRB5      30.00R
MARINETTE      CLEAR     69  65  86 SW5       30.03R
$$

WIZ017-030-035>037-045-231300-
CENTRAL WISCONSIN

CITY           SKY/WX    TMP DP  RH WIND       PRES   REMARKS
MEDFORD        NOT AVBL
WAUSAU         CLEAR     67  65  93 S6        30.03S
MOSINEE        PTCLDY    63  63 100 SE5       30.06R
MARSHFIELD     CLEAR     65  61  87 S5        30.04S
WISC RAPIDS    CLEAR     68  64  87 CALM      30.06R
STEVENS POINT  NOT AVBL
WAUPACA        NOT AVBL
SHAWANO        NOT AVBL
CLINTONVILLE   NOT AVBL
WAUTOMA        CLEAR     60  59  96 CALM      30.06R
$$

WIZ038-039-048-051-231300-
FOX VALLEY

CITY           SKY/WX    TMP DP  RH WIND       PRES   REMARKS
NWS GREEN BAY  CLEAR     67  66  97 CALM      30.04R
APPLETON       PTCLDY    68  61  77 SW5       30.04R
OSHKOSH        CLEAR     66  64  93 S7        30.05R
FOND DU LAC    CLEAR     69  63  81 S6        30.06R
$$

WIZ022-050-052-231300-
EAST CENTRAL WISCONSIN

CITY           SKY/WX    TMP DP  RH WIND       PRES   REMARKS
EPHRAIM        NOT AVBL
WASHINGTON ISL NOT AVBL
STURGEON BAY   CLEAR     71  64  78 SW8       30.05R
MANITOWOC      CLEAR     65  63  93 SE3       30.06R FOG
SHEBOYGAN      CLEAR     64  64 100 CALM      30.07R FOG
$$

LMZ563-521-522-541>543-231300-
LAKESHORE

STATION/POSITION TIME  TEMP    WIND        PRES    VSBY  WAVE
                       AIR SEA DIR/SP/G                  HT/PER
                 (UTC) (F)     (DEG/KT/KT) (MB)    (MI)  (FT/S)
SHEBOYGAN LKSHOR 1100   69     180/  9/  9 1017.0R
KEWAUNEE LKSHORE 1130   64     190/  8/  9 1016.4R
NORTHPORT PIER   1140   68     140/  4/  5 1016.3R
N MID LAKE BUOY  1050   68 66  190/ 10/ 12 1016.7R         2/ 4
S GREEN BAY BUOY 1130   70 67  190/  8/ 10 1016.3R
SISTER BAY LKSHO 1119   77     200/ 10/ 14   N/A
MENOMINEE LKSHOR 1130   72     220/  8/ 12 1016.0R
$$




USA.gov is the U.S. government's official web portal to all federal, state and local government web resources and services.